| time (UTC) | temp F | wind direction | speed MPH | gust MPH | rain 1hr in | rain 24hr in | rain mn in | humidity % | barometer mb |
| 20260904121532 | 61 | 222 | 0.0 | 1.0 | 0.01 | 0.02 | 0.02 | 80 | 1020.7 |
| 20260904120037 | 62 | 221 | 0.0 | 2.0 | 0.02 | 0.02 | 0.02 | 79 | 1020.7 |
| 20260904114528 | 62 | 222 | 1.0 | 5.0 | 0.02 | 0.02 | 0.02 | 78 | 1020.5 |
| 20260904113026 | 63 | 148 | 4.0 | 8.0 | 0.02 | 0.02 | 0.02 | 76 | 1020.3 |
| 20260904111524 | 64 | 259 | 3.0 | 7.0 | 0.01 | 0.01 | 0.01 | 75 | 1020.5 |
| 20260904110019 | 65 | 234 | 0.0 | 7.0 | 0.00 | 0.00 | 0.00 | 71 | 1020.1 |
| 20260904104518 | 66 | 222 | 2.0 | 7.0 | 0.00 | 0.00 | 0.00 | 67 | 1020.0 |
| 20260904103016 | 66 | 65 | 1.0 | 3.0 | 0.00 | 0.00 | 0.00 | 65 | 1020.1 |
| 20260904100015 | 66 | 65 | 0.0 | 4.0 | 0.00 | 0.00 | 0.00 | 62 | 1019.8 |
| 20260904094515 | 66 | 68 | 6.0 | 10.0 | 0.00 | 0.00 | 0.00 | 64 | 1019.6 |
| 20260904093014 | 65 | 63 | 8.0 | 11.0 | 0.00 | 0.00 | 0.00 | 66 | 1019.7 |
| 20260904090009 | 66 | 360 | 1.0 | 2.0 | 0.00 | 0.00 | 0.00 | 65 | 1019.9 |
| 20260904084506 | 66 | 360 | 0.0 | 0.0 | 0.00 | 0.00 | 0.00 | 60 | 1020.0 |
| 20260904083004 | 67 | 360 | 0.0 | 0.0 | 0.00 | 0.00 | 0.00 | 56 | 1019.9 |
| 20260904081602 | 67 | 360 | 1.0 | 2.0 | 0.00 | 0.00 | 0.00 | 56 | 1019.9 |
| 20260904080002 | 67 | 360 | 0.0 | 1.0 | 0.00 | 0.00 | 0.00 | 56 | 1019.9 |
| 20260904074502 | 67 | 360 | 0.0 | 2.0 | 0.00 | 0.00 | 0.00 | 55 | 1020.0 |
| 20260904073102 | 67 | 360 | 0.0 | 0.0 | 0.00 | 0.00 | 0.00 | 54 | 1020.1 |
| 20260904071557 | 67 | 360 | 0.0 | 2.0 | 0.00 | 0.00 | 0.00 | 53 | 1020.0 |
| 20260904070119 | 68 | 360 | 0.0 | 2.0 | 0.00 | 0.00 | 0.00 | 52 | 1020.1 |
| 20260904064555 | 68 | 9 | 2.0 | 4.0 | 0.00 | 0.00 | 0.00 | 52 | 1020.1 |
| 20260904063101 | 68 | 9 | 0.0 | 4.0 | 0.00 | 0.00 | 0.00 | 50 | 1020.1 |
| 20260904061550 | 69 | 59 | 1.0 | 3.0 | 0.00 | 0.00 | 0.00 | 49 | 1020.1 |
| 20260904060047 | 69 | 59 | 0.0 | 2.0 | 0.00 | 0.00 | 0.00 | 48 | 1020.1 |
| 20260904054547 | 70 | 59 | 1.0 | 3.0 | 0.00 | 0.00 | 0.00 | 48 | 1020.0 |
| 20260904053047 | 70 | 59 | 2.0 | 4.0 | 0.00 | 0.00 | 0.00 | 47 | 1020.2 |
| 20260904051546 | 71 | 60 | 0.0 | 0.0 | 0.00 | 0.00 | 0.00 | 46 | 1020.3 |
| 20260904050046 | 71 | 60 | 0.0 | 0.0 | 0.00 | 0.00 | 0.00 | 45 | 1020.2 |
| 20260904044544 | 72 | 60 | 1.0 | 4.0 | 0.00 | 0.00 | 0.00 | 43 | 1020.4 |
| 20260904043053 | 72 | 60 | 0.0 | 6.0 | 0.00 | 0.00 | 0.00 | 43 | 1020.3 |
| 20260904041544 | 72 | 55 | 3.0 | 6.0 | 0.00 | 0.00 | 0.00 | 43 | 1020.3 |
| 20260904040100 | 72 | 59 | 2.0 | 7.0 | 0.00 | 0.00 | 0.00 | 44 | 1020.3 |
| 20260904034544 | 72 | 30 | 1.0 | 4.0 | 0.00 | 0.00 | 0.00 | 44 | 1020.3 |
| 20260904033043 | 72 | 19 | 2.0 | 6.0 | 0.00 | 0.00 | 0.00 | 44 | 1020.3 |
| 20260904031542 | 72 | 355 | 4.0 | 10.0 | 0.00 | 0.00 | 0.00 | 42 | 1020.2 |
| 20260904030042 | 73 | 338 | 6.0 | 11.0 | 0.00 | 0.00 | 0.00 | 41 | 1020.1 |
| 20260904024542 | 73 | 324 | 8.0 | 14.0 | 0.00 | 0.00 | 0.00 | 41 | 1019.9 |
| 20260904023047 | 74 | 272 | 1.0 | 4.0 | 0.00 | 0.00 | 0.00 | 41 | 1019.7 |
| 20260904021541 | 74 | 261 | 2.0 | 8.0 | 0.00 | 0.00 | 0.00 | 40 | 1019.5 |
| 20260904020040 | 75 | 284 | 3.0 | 11.0 | 0.00 | 0.00 | 0.00 | 40 | 1019.4 |
| 20260904014602 | 77 | 259 | 8.0 | 18.0 | 0.00 | 0.00 | 0.00 | 37 | 1019.3 |
| 20260904013041 | 79 | 225 | 6.0 | 14.0 | 0.00 | 0.00 | 0.00 | 32 | 1019.0 |
| 20260904011538 | 79 | 256 | 7.0 | 12.0 | 0.00 | 0.00 | 0.00 | 31 | 1018.9 |
| 20260904010042 | 80 | 241 | 5.0 | 14.0 | 0.00 | 0.00 | 0.00 | 30 | 1018.8 |
| 20260904004538 | 81 | 231 | 6.0 | 13.0 | 0.00 | 0.00 | 0.00 | 29 | 1018.8 |
| 20260904003037 | 82 | 243 | 6.0 | 10.0 | 0.00 | 0.00 | 0.00 | 28 | 1018.9 |
| 20260904001536 | 83 | 237 | 6.0 | 12.0 | 0.00 | 0.00 | 0.00 | 27 | 1018.9 |
| 20260904000037 | 84 | 238 | 9.0 | 15.0 | 0.00 | 0.00 | 0.00 | 27 | 1018.9 |
| 20260903234536 | 85 | 225 | 6.0 | 11.0 | 0.00 | 0.00 | 0.00 | 27 | 1018.9 |
| 20260903233041 | 85 | 226 | 7.0 | 11.0 | 0.00 | 0.00 | 0.00 | 26 | 1018.9 |
| 20260903231534 | 85 | 242 | 5.0 | 13.0 | 0.00 | 0.00 | 0.00 | 26 | 1018.9 |
| 20260903230033 | 84 | 274 | 6.0 | 14.0 | 0.00 | 0.00 | 0.00 | 27 | 1019.0 |
| 20260903224531 | 83 | 218 | 6.0 | 10.0 | 0.00 | 0.00 | 0.00 | 28 | 1019.1 |
| 20260903223030 | 84 | 304 | 7.0 | 13.0 | 0.00 | 0.00 | 0.00 | 26 | 1019.2 |
| 20260903221530 | 86 | 229 | 9.0 | 16.0 | 0.00 | 0.00 | 0.00 | 25 | 1019.2 |
| 20260903220029 | 88 | 236 | 4.0 | 15.0 | 0.00 | 0.00 | 0.00 | 25 | 1019.3 |
| 20260903214528 | 89 | 240 | 12.0 | 16.0 | 0.00 | 0.00 | 0.00 | 24 | 1019.4 |
| 20260903213025 | 88 | 192 | 8.0 | 15.0 | 0.00 | 0.00 | 0.00 | 24 | 1019.6 |
| 20260903211521 | 86 | 219 | 6.0 | 13.0 | 0.00 | 0.00 | 0.00 | 25 | 1019.6 |
| 20260903210019 | 84 | 234 | 8.0 | 17.0 | 0.00 | 0.00 | 0.00 | 26 | 1019.9 |
| 20260903204519 | 83 | 236 | 1.0 | 10.0 | 0.00 | 0.00 | 0.00 | 27 | 1020.0 |
| 20260903203018 | 85 | 286 | 5.0 | 14.0 | 0.00 | 0.00 | 0.00 | 25 | 1020.1 |
| 20260903201517 | 86 | 222 | 7.0 | 14.0 | 0.00 | 0.00 | 0.00 | 25 | 1020.2 |
| 20260903200014 | 86 | 241 | 4.0 | 12.0 | 0.00 | 0.00 | 0.00 | 25 | 1020.4 |
| 20260903194513 | 85 | 234 | 9.0 | 17.0 | 0.00 | 0.00 | 0.00 | 25 | 1020.6 |
| 20260903193011 | 86 | 265 | 5.0 | 15.0 | 0.00 | 0.00 | 0.00 | 25 | 1020.9 |
| 20260903191510 | 85 | 243 | 10.0 | 14.0 | 0.00 | 0.00 | 0.00 | 25 | 1021.0 |
| 20260903190007 | 84 | 238 | 3.0 | 13.0 | 0.00 | 0.00 | 0.00 | 26 | 1021.2 |
| 20260903184504 | 85 | 321 | 2.0 | 11.0 | 0.00 | 0.00 | 0.00 | 26 | 1021.4 |
| 20260903183103 | 84 | 229 | 6.0 | 12.0 | 0.00 | 0.00 | 0.00 | 28 | 1021.6 |
| 20260903181559 | 83 | 210 | 5.0 | 11.0 | 0.00 | 0.00 | 0.00 | 29 | 1021.7 |
| 20260903180053 | 82 | 144 | 3.0 | 7.0 | 0.00 | 0.00 | 0.00 | 29 | 1021.9 |
| 20260903174549 | 80 | 239 | 5.0 | 10.0 | 0.00 | 0.00 | 0.00 | 30 | 1021.9 |
| 20260903173045 | 80 | 313 | 3.0 | 8.0 | 0.00 | 0.00 | 0.00 | 31 | 1022.0 |
| 20260903171546 | 78 | 280 | 3.0 | 13.0 | 0.00 | 0.00 | 0.00 | 32 | 1022.0 |
| 20260903170044 | 78 | 306 | 3.0 | 6.0 | 0.00 | 0.00 | 0.00 | 33 | 1022.1 |
| 20260903164538 | 77 | 292 | 4.0 | 9.0 | 0.00 | 0.00 | 0.00 | 34 | 1022.1 |
| 20260903163029 | 76 | 44 | 4.0 | 11.0 | 0.00 | 0.00 | 0.00 | 35 | 1022.1 |
| 20260903161525 | 76 | 355 | 6.0 | 12.0 | 0.00 | 0.00 | 0.00 | 37 | 1022.1 |
| 20260903160021 | 75 | 336 | 6.0 | 10.0 | 0.00 | 0.00 | 0.00 | 38 | 1022.0 |
| 20260903154517 | 74 | 355 | 4.0 | 13.0 | 0.00 | 0.00 | 0.00 | 39 | 1022.0 |
| 20260903153013 | 73 | 321 | 6.0 | 11.0 | 0.00 | 0.00 | 0.00 | 40 | 1021.9 |
| 20260903151513 | 71 | 5 | 3.0 | 10.0 | 0.00 | 0.00 | 0.00 | 42 | 1021.9 |
| 20260903150010 | 69 | 317 | 4.0 | 9.0 | 0.00 | 0.00 | 0.00 | 44 | 1022.0 |
| 20260903144615 | 68 | 318 | 5.0 | 9.0 | 0.00 | 0.00 | 0.00 | 44 | 1022.0 |
| 20260903143056 | 66 | 313 | 5.0 | 9.0 | 0.00 | 0.00 | 0.00 | 46 | 1022.0 |
| 20260903141550 | 64 | 332 | 3.0 | 11.0 | 0.00 | 0.00 | 0.00 | 48 | 1021.8 |
| 20260903140039 | 62 | 345 | 5.0 | 10.0 | 0.00 | 0.00 | 0.00 | 49 | 1021.7 |
| 20260903134529 | 61 | 325 | 7.0 | 11.0 | 0.00 | 0.00 | 0.00 | 50 | 1021.6 |
| 20260903133025 | 60 | 355 | 4.0 | 8.0 | 0.00 | 0.00 | 0.00 | 51 | 1021.5 |
| 20260903131525 | 59 | 355 | 4.0 | 9.0 | 0.00 | 0.00 | 0.00 | 52 | 1021.4 |
| 20260903130019 | 58 | 355 | 4.0 | 9.0 | 0.00 | 0.00 | 0.00 | 53 | 1021.4 |
| 20260903124517 | 58 | 333 | 2.0 | 6.0 | 0.00 | 0.00 | 0.00 | 54 | 1021.2 |
| 20260903123020 | 57 | 355 | 3.0 | 5.0 | 0.00 | 0.00 | 0.00 | 54 | 1021.3 |